Regional Weather Roundup
Issued by NWS

Home | Current Version | Previous Version | Text Only | Print | Product List | Glossary Off
Versions: 1 2 3 4 5 6 7 8 9 10 11 12 13 14 15 16 17 18 19 20 21 22 23 24 25 26 27 28 29 30 31 32 33 34 35 36 37 38 39 40 41 42 43 44 45 46 47 48 49 50

600
ASUS43 KDMX 040401
RWRIA

WEATHER ROUNDUP FOR IOWA
NATIONAL WEATHER SERVICE DES MOINES IA
1000 PM CST SAT DEC 03 2016

NOTE: "FAIR" INDICATES FEW OR NO CLOUDS BELOW 12,000 FEET WITH NO
SIGNIFICANT WEATHER AND/OR OBSTRUCTIONS TO VISIBILITY.

* - THESE STATIONS ARE NOT NWS STATIONS...THUS NOT UNDER NWS
QUALITY CONTROL.  THEY ALSO DO NOT REPORT WEATHER SUCH
AS PRECIPITATION OR FOG.

IAZ001>003-012>014-020>022-031>034-043>046-040500-
   NORTHWEST IOWA

CITY           SKY/WX    TMP DP  RH WIND       PRES   REMARKS
CARROLL *      LGT SNOW  34  32  93 SE5       30.10F WCI  30
CHEROKEE *     FLURRIES  33  33 100 S8        30.09S WCI  25
DENISON *      LGT SNOW  32  32 100 SE6       30.07F WCI  26
LE MARS *      CLOUDY    34  32  93 S10       30.07F WCI  26
ORANGE CITY *  CLOUDY    34  34 100 S13       30.06F WCI  25
SHELDON *      CLOUDY    34  34 100 S15       30.05F WCI  24
SIOUX CITY     CLOUDY    35  33  92 S10       30.07F WCI  27
SPENCER        CLOUDY    33  33 100 S17       30.09F WCI  22
STORM LAKE *   LGT SNOW  32  32 100 S13       30.08S WCI  22
$$

IAZ055>058-069>071-079>083-090>094-040500-
   SOUTHWEST IOWA

CITY           SKY/WX    TMP DP  RH WIND       PRES   REMARKS
ATLANTIC *     LGT SNOW  34  34 100 SE3       30.09S
AUDUBON *      LGT SNOW  34  30  86 CALM      30.10S
CLARINDA *       N/A     39  37  93 SE7       30.11F WCI  34
COUNCIL BLFS * LGT SNOW  32  32 100 SE7       30.08F WCI  26
CRESTON *      CLOUDY    37  36  93 SE14      30.11F WCI  29
HARLAN  *      LGT SNOW  32  32 100 SE5       30.12F WCI  27
LAMONI         LGT RAIN  39  34  82 SE9       30.11F WCI  33
RED OAK *      CLOUDY    37  36  93 SE12      30.09F WCI  30
SHENANDOAH *   CLOUDY    39  36  87 SE12      30.09F WCI  32
$$

IAZ047>049-059>061-072>074-084-040500-
   CENTRAL IOWA

CITY           SKY/WX    TMP DP  RH WIND       PRES   REMARKS
AMES           LGT SNOW  34  34 100 SE12      30.14F FOG     WCI  25
ANKENY *       MIX PCPN  34  34 100 SE10      30.15F WCI  26
BOONE *        LGT SNOW  34  34 100 SE12      30.11F WCI  25
CHARITON *       N/A     37  32  81 SE9       30.14F WCI  31
DES MOINES     LGT RAIN  37  34  89 E10       30.14F WCI  30
GRINNELL*      CLOUDY    35  31  86 SE10      30.18S WCI  27
KNOXVILLE *    CLOUDY    37  32  81 SE8       30.14F WCI  31
MARSHALLTOWN   CLOUDY    35  32  88 SE15      30.15F WCI  25
NEWTON *       CLOUDY    34  32  93 SE12      30.16S FOG     WCI  25
PELLA *        MOCLDY    37  31  81 SE8       30.18F WCI  30
PERRY *        LGT RAIN  35  35  99 SE12      30.11F WCI  27
$$

IAZ004>006-015-016-023>025-035-036-040500-
   NORTH CENTRAL IOWA

CITY           SKY/WX    TMP DP  RH WIND       PRES   REMARKS
ALGONA *       CLOUDY    34  34 100 S12       30.10F FOG     WCI  25
CLARION *      CLOUDY    34  34 100 SE12      30.13S FOG     WCI  25
ESTHERVILLE    LGT SNOW  32  32 100 S14       30.08F FOG     WCI  22
FORT DODGE *   CLOUDY    34  30  86 SE6       30.12F WCI  29
MASON CITY     LGT SNOW  33  31  92 SE10      30.14F FOG     WCI  25
WEBSTER CITY * LGT SNOW  34  34 100 SE9       30.11S WCI  26
IOWA FALLS *   LGT SNOW  35  33  93 SE9       30.15F WCI  27
$$

IAZ007>011-017>019-026>030-037>042-050>054-066-040500-
   NORTHEAST IOWA

CITY           SKY/WX    TMP DP  RH WIND       PRES   REMARKS
CEDAR RAPIDS   CLOUDY    35  29  78 SE8       30.19F WCI  29
CHARLES CITY * LGT SNOW  34  34 100 SE8       30.16F WCI  27
CLINTON *      CLOUDY    34  27  75 S8        30.25F WCI  27
DECORAH *      CLOUDY    32  28  86 SE6       30.17F WCI  26
DUBUQUE        CLOUDY    33  28  81 S7        30.22S WCI  27
MONTICELLO *   CLOUDY    36  28  75 SE6       30.21F WCI  31
OELWEIN *      MIX PCPN  32  32 100 SE7       30.19F WCI  26
WATERLOO       CLOUDY    34  31  88 SE12      30.17F WCI  25
$$

IAZ064-065-067-068-078-040500-
   EAST CENTRAL IOWA

CITY           SKY/WX    TMP DP  RH WIND       PRES   REMARKS
DAVENPORT      CLOUDY    34  26  72 S8        30.24F WCI  27
IOWA CITY      CLOUDY    36  29  75 SE9       30.23F WCI  29
MUSCATINE *    CLOUDY    36  28  75 SE9       30.24F WCI  29
QUAD CITIES    CLOUDY    35  26  69 SE9       30.25F WCI  28
$$

IAZ062-063-075>077-085>089-095>099-040500-
   SOUTHEAST IOWA

CITY           SKY/WX    TMP DP  RH WIND       PRES   REMARKS
BURLINGTON     CLOUDY    35  30  82 SE10      30.22F WCI  27
FAIRFIELD *    CLOUDY    36  30  80 SE10      30.19S WCI  28
FORT MADISON * CLOUDY    36  30  80 SE12      30.21F WCI  27
KEOKUK *       CLOUDY    37  32  81 SE13      30.20F WCI  29
OSKALOOSA *    CLOUDY    35  31  85 SE8       30.19S WCI  29
CENTERVILLE *    N/A     37  32  81 SE12      30.16F WCI  30
OTTUMWA        CLOUDY    37  30  75 E9        30.17S WCI  30
WASHINGTON *   CLOUDY    36  30  80 SE12      30.21F WCI  27
$$

ABBREVIATIONS USED IN REMARKS
   TC - TEMPERATURES IN CELSIUS
  WCI - WIND CHILL INDEX
   HX - HEAT INDEX
  VSB - VISIBILITY
$$





USA.gov is the U.S. government's official web portal to all federal, state and local government web resources and services.